Change the Weather History Date:

Wednesday, September 11, 2013

  Actual Average Record
Temperature  
Mean Temperature 66 °F -  
Max Temperature 72 °F 60 °F 80 °F (1999)
Min Temperature 59 °F 45 °F 39 °F (2000)
Growing Degree Days 16 (Base 50)    
Moisture  
Dew Point 62 °F    
Average Humidity 91    
Maximum Humidity 100    
Minimum Humidity 75    
Precipitation  
Precipitation 0.08 in 0.13 in - ()
Sea Level Pressure  
Sea Level Pressure 30.03 in    
Wind  
Wind Speed 9 mph ()    
Max Wind Speed 18 mph    
Max Gust Speed 22 mph    
Visibility 13.8 miles    
Events Rain    
Averages and records for this station are not official NWS values.
T = Trace of Precipitation, MM = Missing Value Source: Averaged Metar Reports

Daily Weather History Graph

Daily Weather History Graph

Search for Another Location

Airport or City:

Trip Planner

Search our weather history database for the weather conditions in past years. The results will help you decide how hot, cold, wet, or windy it might be!

Date:

Astronomy

Sep. 11, 2013 Rise Set
Actual Time 6:45 AM ADT 7:31 PM ADT
Civil Twilight 6:15 AM ADT 8:01 PM ADT
Nautical Twilight 5:39 AM ADT 8:37 PM ADT
Astronomical Twilight 5:01 AM ADT 9:15 PM ADT
Moon 1:31 PM ADT (9/11) 11:01 PM ADT (9/11)
Length of Visible Light 13h 46m
Length of Day
12h 45m
Waxing Crescent, 38% of the Moon is Illuminated
Sep 11
Waxing Crescent
Sep 12
First Quarter
Sep 19
Full
Sep 27
Last Quarter
Oct 4
New

Hourly Weather History & Observations

Time (ADT) Temp. Dew Point Humidity Pressure Visibility Wind Dir Wind Speed Gust Speed Precip Events Conditions
12:00 AM 62.6 °F 55.4 °F 77% 30.16 in 15.0 mi SSW 6.9 mph - N/A   Overcast
1:00 AM 60.8 °F 57.2 °F 88% 30.14 in 15.0 mi SSW 6.9 mph - N/A   Overcast
2:00 AM 60.8 °F 59.0 °F 94% 30.13 in 15.0 mi South 6.9 mph - N/A   Overcast
3:00 AM 60 °F 58 °F 92% 30.13 in 15 mi SSW 10.4 mph - -   Overcast
3:00 AM 60.8 °F 59.0 °F 94% 30.13 in 15.0 mi SSW 9.2 mph - N/A   Overcast
3:14 AM 59.0 °F 59.0 °F 100% 30.12 in 15.0 mi South 9.2 mph - N/A Rain Light Rain Showers
4:00 AM 59.0 °F 59.0 °F 100% 30.11 in 15.0 mi South 8.1 mph - N/A Rain Light Rain Showers
4:39 AM 59.0 °F 59.0 °F 100% 30.10 in 6.0 mi SSE 9.2 mph - N/A Rain Light Rain Showers
5:00 AM 59.0 °F 59.0 °F 100% 30.09 in 6.0 mi South 8.1 mph - N/A Rain Light Rain Showers
6:00 AM 59.0 °F 59.0 °F 100% 30.09 in 6.0 mi South 9.2 mph - N/A Rain Light Rain Showers
6:47 AM 60.8 °F 59.0 °F 94% 30.09 in 12.0 mi SSE 10.4 mph - N/A Rain Light Rain Showers
7:00 AM 60.8 °F 59.0 °F 94% 30.09 in 12.0 mi South 10.4 mph - N/A Rain Light Rain Showers
7:48 AM 60.8 °F 59.0 °F 94% 30.08 in 15.0 mi South 11.5 mph - N/A   Overcast
8:00 AM 60.8 °F 59.0 °F 94% 30.09 in 15.0 mi South 10.4 mph - N/A   Overcast
8:28 AM 60.8 °F 60.8 °F 100% 30.07 in 6.0 mi South 11.5 mph - N/A   Light Drizzle
9:00 AM 62 °F 60 °F 92% 30.06 in 15 mi South 13.8 mph - - Rain Light Drizzle
9:00 AM 62.6 °F 60.8 °F 94% 30.06 in 15.0 mi South 16.1 mph - N/A   Overcast
10:00 AM 64.4 °F 60.8 °F 88% 30.05 in 15.0 mi South 15.0 mph 20.7 mph N/A   Overcast
11:00 AM 64.4 °F 60.8 °F 88% 30.04 in 15.0 mi South 18.4 mph - N/A   Overcast
11:45 AM 66.2 °F 62.6 °F 88% 30.03 in 15.0 mi South 13.8 mph 20.7 mph N/A   Overcast
12:00 PM 66.2 °F 62.6 °F 88% 30.01 in 15.0 mi South 17.3 mph - N/A   Overcast
1:00 PM 69.8 °F 64.4 °F 83% 30.00 in 15.0 mi SSW 15.0 mph - N/A   Mostly Cloudy
2:00 PM 71.6 °F 64.4 °F 78% 29.97 in 15.0 mi SSW 13.8 mph 20.7 mph N/A   Mostly Cloudy
3:00 PM 70 °F 64 °F 75% 29.99 in 15 mi SW 11.5 mph - -   Overcast
3:00 PM 69.8 °F 64.4 °F 83% 29.99 in 15.0 mi WSW 11.5 mph 17.3 mph N/A   Overcast
3:05 PM 69.8 °F 64.4 °F 83% 29.98 in 15.0 mi SW 8.1 mph 17.3 mph N/A Rain Light Rain Showers
3:44 PM 69.8 °F 66.2 °F 88% 29.95 in 15.0 mi South 13.8 mph 21.9 mph N/A   Overcast
4:00 PM 69.8 °F 66.2 °F 88% 29.95 in 15.0 mi SSW 11.5 mph - N/A   Overcast
5:00 PM 69.8 °F 66.2 °F 88% 29.94 in 15.0 mi South 8.1 mph - N/A   Overcast
6:00 PM 68.0 °F 66.2 °F 94% 29.92 in 15.0 mi South 8.1 mph - N/A   Overcast
7:00 PM 69.8 °F 66.2 °F 88% 29.91 in 15.0 mi South 8.1 mph - N/A   Overcast
8:00 PM 68.0 °F 66.2 °F 94% 29.92 in 15.0 mi South 8.1 mph - N/A   Overcast
9:00 PM 68 °F 66 °F 91% 29.92 in 15 mi South 6.9 mph - -   Partly Cloudy
9:00 PM 68.0 °F 66.2 °F 94% 29.92 in 15.0 mi South 6.9 mph - N/A   Overcast
10:00 PM 68.0 °F 66.2 °F 94% 29.91 in 15.0 mi South 8.1 mph - N/A   Overcast
11:00 PM 68.0 °F 66.2 °F 94% 29.88 in 15.0 mi South 11.5 mph - N/A   Overcast